Wind_Speed
26 26 26 27 31 32 29 26 28 31 25 27 25 23 22 21 22 23 22 23 22 23 23 23 24 27 26 26 27 25 24 22 23 28 29 31 30 28 26 30 35 37 42 42 40
26 26 27 28 29 33 32 32 30 31 29 28 30 25 23 23 23 22 22 23 24 25 25 25 26 27 28 30 29 26 25 27 27 29 31 33 32 32 31 31 33 33 35 37 36
27 28 28 28 29 29 30 31 28 27 27 28 30 29 25 24 24 24 23 24 24 25 27 28 29 29 30 31 29 28 29 31 29 29 29 30 30 29 30 31 32 32 30 34 43
28 28 30 30 28 28 27 26 27 27 27 29 30 30 26 25 24 24 24 24 24 23 25 28 28 29 29 30 30 30 30 30 31 30 30 28 27 26 25 27 30 32 28 33 41
29 28 31 31 29 29 28 27 28 30 29 28 28 28 26 25 24 25 25 24 24 25 26 27 27 28 29 29 31 32 31 32 33 34 32 30 29 29 28 27 28 30 29 33 38
33 34 32 31 26 25 26 25 26 27 26 25 27 27 25 25 24 25 25 25 25 26 26 26 29 30 30 30 32 30 30 33 33 34 33 31 31 32 31 30 30 30 32 35 37
39 38 35 29 27 28 26 26 26 28 27 26 27 26 25 28 25 25 25 26 26 26 26 27 30 30 31 33 32 31 31 35 36 34 34 32 30 31 26 30 32 32 33 38 38
43 41 40 33 33 30 27 27 27 30 30 30 29 28 30 28 27 29 28 28 28 28 27 28 32 32 33 35 36 34 35 37 36 33 32 30 33 28 25 29 29 31 33 36 38
39 40 40 37 36 35 31 30 30 32 33 32 32 32 33 31 31 34 32 32 30 29 27 30 34 34 34 35 37 40 39 37 36 35 33 30 33 28 29 30 29 29 33 35 36
32 34 36 38 37 36 36 31 33 36 36 35 34 33 34 33 33 35 34 34 34 34 33 33 34 35 37 36 40 39 41 40 40 39 39 36 37 31 30 29 29 31 34 36 37
35 36 37 36 35 38 40 35 37 38 39 38 38 38 36 37 36 36 37 37 37 37 36 35 36 40 37 35 38 39 42 42 45 44 42 40 39 36 31 30 34 35 37 38 38
34 34 34 36 36 37 39 40 38 40 39 39 38 39 40 40 39 39 37 40 41 40 37 37 43 40 38 39 40 38 40 43 46 47 43 43 40 39 35 35 37 39 40 42 44
37 37 36 36 37 37 39 41 40 42 40 40 37 36 38 38 39 39 41 37 39 39 38 39 43 38 41 43 45 46 46 51 49 48 44 44 42 42 40 39 42 42 44 46 48
39 38 37 37 37 37 37 41 42 43 41 38 37 38 40 43 40 40 42 41 41 40 36 40 41 39 39 43 46 48 52 54 53 53 48 48 44 44 45 44 45 46 47 50 49
44 41 40 40 38 39 39 40 43 45 42 40 43 46 47 47 44 43 46 47 47 45 42 48 48 45 43 50 47 52 56 54 55 55 54 52 49 47 47 48 49 50 50 49 48
41 45 46 44 42 40 38 38 42 45 46 47 49 49 51 50 49 50 51 51 51 49 47 54 53 49 50 52 51 54 58 57 56 55 53 54 53 47 51 51 52 53 50 47 46
32 31 36 41 43 46 46 44 43 44 49 52 53 54 54 55 54 55 57 56 55 53 53 57 57 57 55 55 59 58 60 61 58 56 48 56 51 44 51 52 55 55 51 48 48
38 35 33 34 34 37 40 44 48 52 51 51 53 53 55 57 60 61 60 58 58 57 59 58 60 64 63 60 61 60 62 62 62 61 57 58 51 50 54 54 55 58 55 53 51
41 40 40 39 38 35 35 38 42 46 50 55 57 59 60 62 64 65 65 62 59 58 57 53 47 60 59 61 63 67 65 69 68 66 63 58 57 56 61 60 61 59 58 55 54
45 45 44 44 43 43 41 42 43 45 46 47 48 49 51 55 55 57 55 55 56 56 56 53 49 58 64 62 65 68 72 74 72 70 68 62 62 59 64 66 67 63 60 58 56
47 46 48 49 48 49 47 49 51 50 50 52 54 55 58 61 62 64 61 61 65 65 65 63 58 57 64 71 72 74 71 79 81 75 71 69 64 63 66 70 70 68 63 61 60
49 48 48 49 51 51 51 53 55 56 58 59 59 59 61 65 67 69 71 71 71 72 74 73 69 61 64 71 77 81 81 80 80 74 76 71 61 66 67 69 68 70 66 63 62
49 50 49 50 51 51 52 53 56 59 61 60 61 64 66 69 73 74 77 77 79 81 82 82 82 74 70 75 80 83 85 87 87 84 78 81 65 69 72 75 72 70 68 66 65
50 50 52 54 54 54 56 57 58 59 62 65 67 70 71 73 75 79 81 83 85 87 88 88 89 88 80 79 83 84 88 93 94 93 88 81 78 75 75 73 71 71 69 67 66
52 53 54 56 57 59 60 61 63 64 65 68 71 74 77 79 82 85 87 90 91 95 96 95 94 97 95 92 87 88 90 95 94 95 96 84 89 81 79 77 76 75 74 74 72
53 54 55 56 58 61 63 64 65 66 71 74 77 80 83 87 89 92 95 98 96 98 101 101 101 101 96 97 98 94 90 94 97 96 97 94 93 89 85 81 79 79 78 76 77
51 52 53 55 58 59 61 64 66 68 72 77 81 84 88 93 96 99 101 100 99 99 101 102 103 103 92 101 101 94 98 94 98 101 99 97 94 94 89 85 83 82 81 80 78
Wind_Direction
212 212 218 222 228 230 229 232 236 241 245 238 249 251 255 255 254 248 245 247 248 250 249 243 242 243 244 245 244 246 251 244 240 245 243 244 248 249 246 244 251 255 260 262 265
219 221 224 228 232 234 239 243 251 247 248 248 250 251 254 252 251 248 247 248 250 250 249 245 242 244 246 249 249 249 247 244 241 241 246 246 246 253 254 254 258 262 262 260 263
228 226 228 234 235 236 241 246 253 252 249 251 251 258 250 245 247 250 251 251 253 253 251 248 244 245 245 249 252 251 250 248 244 245 246 248 249 248 251 253 253 256 254 250 252
229 227 230 232 234 238 244 250 254 257 260 255 252 251 240 240 244 249 254 256 255 254 253 250 247 246 248 251 252 251 249 253 254 251 250 252 253 252 251 251 252 253 256 255 251
223 231 231 233 235 239 244 250 254 254 252 246 243 242 237 239 246 252 254 253 255 252 252 254 254 252 249 246 250 251 255 254 253 252 251 251 249 249 250 252 253 256 255 255 259
225 227 232 227 230 238 245 254 255 246 240 239 238 236 238 244 248 251 251 251 253 253 253 257 254 254 257 251 249 252 250 252 252 256 256 250 251 245 244 250 253 252 256 256 256
224 228 231 234 229 238 247 254 250 238 235 236 237 238 240 243 249 251 250 251 252 251 254 254 255 259 257 258 261 256 252 255 256 257 260 262 256 255 251 246 248 250 250 253 256
225 229 236 232 233 239 247 253 244 234 234 236 238 241 244 246 250 250 250 249 249 249 250 250 250 252 257 259 261 257 255 258 264 265 265 262 262 261 256 251 251 251 251 253 255
227 231 230 232 238 240 246 252 242 236 237 239 242 244 250 252 251 251 250 252 253 254 255 253 252 252 252 253 257 261 263 265 270 268 265 262 263 257 256 251 253 253 257 256 257
230 231 231 236 240 243 243 252 243 237 239 240 243 246 252 253 251 251 253 253 254 252 251 251 254 251 248 251 254 265 270 270 266 264 268 271 268 265 264 264 264 262 263 262 262
231 232 236 240 245 245 242 249 245 238 242 244 247 248 251 254 254 250 251 253 252 252 253 254 255 253 258 263 263 263 264 269 272 269 266 267 267 266 266 269 269 267 267 267 266
236 236 239 239 245 248 245 247 250 240 243 247 248 250 252 253 254 255 251 250 253 254 255 254 255 259 262 261 264 264 263 263 265 266 264 262 263 265 269 270 269 271 270 270 268
241 241 243 246 248 249 250 248 249 242 246 250 249 249 252 252 252 252 253 249 252 252 252 255 258 260 258 260 261 262 262 262 264 267 264 264 265 267 268 271 271 272 271 270 273
241 244 247 247 250 250 252 249 247 245 247 249 250 249 254 254 253 253 252 252 253 254 257 257 260 264 264 264 261 262 260 263 266 269 268 263 265 267 268 267 271 270 270 271 274
245 245 246 249 251 250 250 250 245 244 249 249 248 251 252 254 253 253 255 255 254 255 256 261 265 265 265 262 264 262 263 263 262 262 262 264 261 266 267 268 267 268 269 273 276
241 244 245 249 251 251 252 253 249 247 250 250 253 253 256 257 258 258 257 255 255 256 257 261 265 266 262 264 267 266 268 264 263 262 265 265 263 260 264 265 267 267 268 270 274
243 241 244 248 251 253 255 255 254 252 250 250 254 258 259 260 256 256 256 258 260 259 260 263 266 265 262 262 265 264 264 265 262 262 262 262 264 262 263 265 267 267 267 269 271
245 247 247 251 253 254 255 256 255 254 253 253 254 257 260 261 261 259 258 258 261 263 263 264 265 266 266 265 262 261 261 262 263 262 257 258 264 262 259 262 260 265 265 264 265
243 246 249 253 256 256 256 257 257 258 258 257 258 259 260 261 263 265 266 264 262 261 263 263 263 266 265 264 263 264 264 260 258 256 256 255 256 258 262 261 262 259 262 266 269
247 249 250 253 256 259 261 263 263 262 262 262 260 260 259 260 263 265 265 268 265 262 259 258 260 265 268 269 268 263 262 262 262 259 259 258 257 257 258 260 262 262 263 266 269
251 252 256 256 258 259 261 265 267 267 267 265 264 263 262 263 264 265 264 265 267 266 264 263 259 262 267 271 269 269 265 264 264 266 264 261 260 258 258 260 264 265 267 267 268
255 256 259 261 262 264 264 266 268 268 269 269 268 267 267 267 267 267 268 267 267 268 269 268 266 260 263 265 265 267 268 266 266 267 266 264 258 258 258 258 262 265 266 266 268
257 260 261 266 268 268 268 267 268 270 269 269 269 270 269 269 270 270 270 270 270 268 269 269 268 263 258 258 261 263 267 269 269 265 264 263 261 257 256 257 256 260 265 265 265
262 265 265 267 268 270 270 271 271 273 275 275 274 273 273 272 272 273 273 272 272 271 270 269 269 267 261 257 259 261 262 264 264 266 266 264 261 260 258 257 257 259 261 264 264
265 269 272 272 272 270 270 271 272 273 274 275 275 276 276 276 275 273 272 270 270 271 271 270 270 270 271 268 261 258 260 260 263 266 266 265 264 260 259 259 258 256 258 261 262
272 276 277 276 277 278 279 278 277 275 275 275 274 274 274 274 273 273 273 273 271 272 272 271 271 269 268 268 266 264 260 260 261 259 261 260 260 260 262 260 258 259 258 258 261
276 277 277 277 278 280 282 282 283 281 280 281 281 282 281 280 279 277 276 274 273 273 272 272 271 270 268 266 266 265 261 258 257 260 260 259 259 259 258 257 257 257 258 259 260
Height
10864 10867 10871 10874 10876 10878 10881 10884 10886 10888 10890 10892 10892 10893 10894 10896 10896 10896 10899 10900 10900 10901 10902 10905 10906 10905 10907 10907 10909 10913 10916 10920 10922 10922 10923 10924 10927 10929 10931 10930 10927 10928 10932 10935 10938
10861 10864 10867 10870 10872 10874 10877 10879 10881 10883 10885 10886 10887 10889 10891 10891 10891 10893 10895 10896 10897 10897 10898 10899 10901 10902 10903 10903 10906 10910 10911 10913 10915 10918 10919 10920 10924 10926 10926 10925 10925 10926 10927 10928 10931
10858 10861 10863 10865 10868 10870 10873 10875 10877 10878 10880 10881 10882 10884 10886 10887 10888 10889 10890 10892 10892 10893 10893 10893 10896 10896 10897 10898 10901 10905 10906 10907 10910 10912 10915 10918 10920 10921 10921 10921 10922 10923 10923 10924 10922
10854 10857 10860 10862 10864 10867 10869 10871 10872 10873 10874 10875 10876 10878 10881 10883 10885 10885 10886 10887 10888 10888 10888 10888 10891 10892 10893 10894 10896 10899 10900 10902 10905 10908 10910 10913 10915 10916 10916 10916 10918 10918 10920 10918 10913
10849 10853 10855 10858 10860 10863 10864 10866 10867 10867 10868 10869 10871 10873 10877 10879 10880 10881 10881 10882 10883 10884 10883 10884 10885 10886 10888 10889 10890 10892 10895 10896 10897 10899 10903 10906 10908 10910 10912 10911 10913 10914 10916 10913 10907
10845 10848 10850 10853 10856 10858 10859 10861 10861 10862 10863 10864 10866 10868 10872 10874 10875 10875 10876 10877 10879 10879 10880 10880 10880 10880 10882 10883 10883 10888 10888 10887 10889 10891 10896 10900 10902 10903 10905 10905 10905 10909 10909 10908 10904
10839 10842 10845 10848 10851 10852 10854 10855 10855 10857 10858 10859 10861 10864 10867 10866 10868 10870 10871 10872 10873 10874 10876 10876 10874 10875 10875 10875 10877 10881 10881 10880 10882 10886 10888 10892 10895 10896 10901 10900 10902 10903 10902 10900 10902
10832 10835 10839 10843 10845 10847 10847 10849 10850 10851 10853 10854 10857 10859 10859 10862 10864 10863 10865 10866 10867 10868 10871 10871 10869 10870 10869 10868 10868 10871 10872 10873 10875 10880 10882 10886 10884 10890 10895 10895 10896 10896 10895 10894 10893
10826 10829 10833 10835 10838 10840 10841 10843 10844 10845 10847 10848 10851 10853 10853 10856 10857 10856 10859 10859 10861 10863 10865 10865 10863 10864 10864 10863 10861 10860 10863 10868 10869 10870 10872 10877 10877 10881 10884 10885 10886 10887 10886 10887 10886
10820 10823 10826 10829 10832 10833 10835 10836 10837 10838 10840 10842 10845 10847 10847 10848 10850 10851 10851 10852 10853 10855 10856 10857 10857 10857 10856 10858 10856 10857 10856 10859 10860 10862 10863 10866 10868 10872 10875 10876 10877 10878 10877 10877 10878
10814 10817 10819 10822 10824 10825 10828 10829 10829 10832 10834 10836 10838 10839 10840 10839 10840 10843 10844 10843 10845 10846 10847 10850 10849 10847 10852 10855 10854 10855 10853 10853 10849 10853 10857 10858 10859 10861 10864 10868 10867 10867 10866 10867 10869
10808 10810 10812 10814 10816 10818 10820 10820 10823 10825 10826 10827 10831 10833 10832 10832 10832 10833 10835 10836 10836 10837 10840 10840 10838 10843 10848 10848 10847 10849 10847 10845 10842 10841 10847 10848 10852 10852 10856 10857 10857 10856 10856 10854 10856
10801 10803 10806 10808 10810 10811 10812 10814 10813 10817 10819 10820 10824 10825 10822 10823 10823 10826 10824 10827 10827 10828 10831 10832 10830 10836 10837 10838 10837 10838 10838 10832 10833 10834 10840 10839 10843 10844 10847 10847 10845 10845 10843 10840 10840
10794 10796 10798 10800 10802 10803 10803 10805 10806 10808 10811 10815 10815 10814 10812 10811 10815 10815 10816 10817 10817 10821 10826 10823 10823 10827 10829 10827 10827 10827 10823 10823 10824 10825 10830 10834 10837 10836 10836 10838 10835 10832 10829 10828 10829
10785 10787 10789 10791 10793 10793 10795 10796 10798 10800 10803 10805 10802 10799 10798 10801 10805 10806 10804 10806 10809 10813 10818 10810 10813 10817 10819 10811 10817 10814 10809 10813 10813 10813 10815 10821 10825 10825 10826 10826 10824 10823 10821 10821 10820
10775 10778 10780 10782 10784 10785 10787 10788 10790 10793 10792 10791 10787 10789 10789 10792 10795 10794 10791 10793 10795 10802 10807 10798 10801 10806 10802 10800 10803 10800 10796 10799 10800 10803 10807 10807 10810 10818 10814 10812 10813 10812 10814 10815 10813
10767 10769 10770 10772 10773 10775 10777 10779 10782 10780 10778 10777 10776 10777 10778 10778 10781 10779 10777 10782 10785 10791 10791 10788 10786 10786 10790 10789 10783 10786 10782 10782 10787 10790 10800 10791 10798 10810 10803 10803 10799 10800 10803 10805 10804
10759 10761 10762 10763 10764 10766 10767 10768 10767 10765 10767 10767 10766 10767 10765 10764 10762 10763 10766 10772 10774 10776 10775 10779 10775 10768 10770 10774 10768 10768 10766 10768 10768 10772 10779 10779 10791 10796 10788 10787 10789 10785 10789 10793 10797
10750 10751 10752 10753 10754 10757 10758 10755 10754 10753 10753 10754 10757 10757 10754 10749 10748 10749 10751 10755 10758 10761 10758 10759 10766 10750 10753 10751 10753 10748 10752 10746 10748 10752 10757 10768 10774 10777 10769 10771 10770 10776 10778 10782 10784
10740 10742 10742 10742 10744 10746 10747 10743 10742 10741 10742 10741 10742 10743 10740 10735 10737 10733 10738 10738 10739 10741 10743 10747 10753 10741 10733 10735 10734 10733 10727 10724 10729 10736 10742 10755 10757 10762 10755 10752 10751 10760 10766 10768 10770
10728 10731 10729 10731 10732 10734 10736 10732 10730 10729 10729 10728 10728 10729 10725 10722 10721 10717 10724 10723 10718 10720 10722 10726 10736 10737 10724 10712 10710 10708 10712 10702 10702 10717 10726 10737 10749 10746 10744 10739 10739 10742 10749 10753 10755
10716 10719 10718 10719 10720 10721 10723 10720 10717 10715 10713 10713 10712 10712 10709 10703 10702 10701 10698 10701 10701 10700 10696 10701 10709 10723 10716 10701 10687 10680 10681 10685 10686 10700 10699 10709 10731 10730 10728 10728 10729 10725 10734 10740 10741
10706 10706 10707 10706 10706 10707 10707 10707 10703 10698 10698 10697 10695 10691 10690 10687 10681 10681 10678 10679 10675 10672 10672 10674 10676 10691 10699 10686 10674 10666 10662 10658 10659 10666 10682 10678 10709 10705 10708 10709 10714 10713 10717 10723 10725
10695 10693 10694 10691 10692 10692 10690 10689 10688 10685 10680 10676 10674 10671 10669 10666 10662 10657 10654 10650 10646 10643 10643 10646 10646 10649 10667 10667 10659 10657 10644 10633 10632 10636 10647 10663 10672 10680 10684 10691 10697 10700 10702 10703 10708
10684 10681 10679 10677 10676 10674 10673 10673 10671 10670 10668 10660 10653 10649 10644 10640 10635 10630 10625 10621 10619 10614 10614 10617 10621 10615 10622 10631 10640 10636 10627 10613 10615 10613 10614 10644 10634 10653 10659 10669 10673 10678 10683 10684 10688
10672 10669 10665 10662 10658 10655 10654 10652 10651 10649 10642 10637 10632 10627 10619 10613 10608 10601 10596 10588 10592 10589 10584 10585 10585 10582 10595 10590 10586 10596 10603 10594 10588 10590 10591 10603 10609 10623 10632 10642 10649 10653 10660 10666 10667
10658 10655 10651 10646 10644 10640 10638 10632 10627 10622 10620 10612 10605 10597 10589 10580 10571 10564 10559 10557 10557 10557 10552 10546 10542 10540 10568 10547 10551 10567 10558 10567 10563 10558 10563 10572 10586 10590 10602 10614 10622 10630 10636 10642 10648